Content
SEND FEEDBACK

Daily
Averages
Monthly
Summary
United States of America

FAYETTEVILLE, TENNESSEE


Home > North America > United States > Tennessee
Elevation: 213 meters     Latitude: 35 10N     Longitude: 086 33W

WEATHER
 
SELECT A DAY
Number of Records: 309,541;   Date Range: 4/22/02 - 12/19/14
 
SHARE

PRINT THIS DATA

[ ← Previous Day ]
WEATHER ALMANAC - 8 OCTOBER, 2013
[ Next Day → ]
[ °F ]   °C
We're sorry. There is no daily almanac available for Fayetteville, Tennessee on 8 October, 2013.
WEATHER BY HOUR - 8 OCTOBER, 2013
[ °F ]   °C
Local TimeTemperatureDewpointHumidityBarometerVisibilityWind DirectionWind SpeedGust SpeedPrecipitationEventsConditions
12:35 AM10 °C6 °C76 %1018.6 hPa16.1 kmNorth (350°)7.4 km/hClear
12:55 AM10 °C7 °C82 %1018.3 hPa16.1 kmNorth (10°)5.6 km/hClear
1:15 AM10 °C7 °C82 %1018.3 hPa16.1 kmCalmClear
1:35 AM10 °C6 °C76 %1018.3 hPa16.1 kmNorth (360°)5.6 km/hClear
1:55 AM10 °C6 °C76 %1018.3 hPa16.1 kmCalmClear
2:15 AM10 °C6 °C76 %1018.3 hPa16.1 kmCalmClear
2:35 AM10 °C6 °C76 %1018.3 hPa16.1 kmCalmClear
2:55 AM9 °C6 °C82 %1017.9 hPa16.1 kmCalmClear
3:15 AM8 °C6 °C87 %1017.9 hPa16.1 kmCalmClear
3:35 AM8 °C6 °C87 %1017.9 hPa16.1 kmCalmClear
3:55 AM8 °C6 °C87 %1017.9 hPa16.1 kmCalmClear
4:15 AM8 °C6 °C87 %1017.9 hPa16.1 kmCalmClear
4:35 AM8 °C6 °C87 %1017.9 hPa16.1 kmCalmClear
4:55 AM8 °C6 °C87 %1017.9 hPa16.1 kmCalmClear
5:15 AM8 °C6 °C87 %1017.9 hPa16.1 kmCalmClear
5:35 AM8 °C6 °C87 %1018.3 hPa16.1 kmCalmClear
5:55 AM8 °C6 °C87 %1018.3 hPa16.1 kmCalmClear
6:15 AM8 °C6 °C87 %1018.6 hPa16.1 kmNorth (350°)5.6 km/hClear
6:35 AM8 °C6 °C87 %1018.6 hPa16.1 kmNorth (360°)7.4 km/hClear
6:55 AM9 °C6 °C82 %1018.6 hPa16.1 kmNorth (360°)9.3 km/hScattered Clouds
7:15 AM9 °C6 °C82 %1018.6 hPa16.1 kmNorth (360°)9.3 km/hScattered Clouds
7:35 AM9 °C7 °C87 %1019 hPa16.1 kmNorth (350°)7.4 km/hClear
7:55 AM10 °C7 °C82 %1019 hPa16.1 kmNorth (360°)5.6 km/hMostly Cloudy
8:15 AM11 °C7 °C76 %1019.3 hPa16.1 kmNNE (20°)9.3 km/hMostly Cloudy
8:35 AM11 °C7 °C76 %1019.6 hPa16.1 kmNNE (20°)9.3 km/hMostly Cloudy
8:55 AM13 °C7 °C67 %1019.6 hPa16.1 kmNNE (30°)7.4 km/hScattered Clouds
9:15 AM13 °C7 °C67 %1019.6 hPa16.1 kmNNE (30°)14.8 km/hScattered Clouds
9:35 AM15 °C7 °C59 %1019.6 hPa16.1 kmNNE (30°)9.3 km/hScattered Clouds
9:55 AM16 °C7 °C55 %1019.6 hPa16.1 kmNNE (30°)13 km/hMostly Cloudy
10:15 AM16 °C7 °C55 %1019.6 hPa16.1 kmNorth (360°)11.1 km/hOvercast
10:35 AM17 °C7 °C52 %1019.6 hPa16.1 kmNNE (20°)7.4 km/hMostly Cloudy
10:55 AM18 °C7 °C49 %1019.6 hPa16.1 kmNNE (30°)7.4 km/hScattered Clouds
11:15 AM18 °C7 °C49 %1019.6 hPa16.1 kmCalmClear
11:35 AM19 °C7 °C46 %1019.6 hPa16.1 kmNE (40°)5.6 km/hClear
11:55 AM20 °C8 °C46 %1019.6 hPa16.1 kmNorth (10°)5.6 km/hClear
12:15 PM21 °C8 °C43 %1019.3 hPa16.1 kmNorth (360°)7.4 km/hClear
12:35 PM22 °C7 °C38 %1019 hPa16.1 kmNE (40°)5.6 km/hClear
12:55 PM22 °C7 °C38 %1019 hPa16.1 kmCalmClear
1:15 PM22 °C8 °C41 %1018.3 hPa16.1 kmNW (310°)5.6 km/hClear
1:35 PM23 °C8 °C38 %1018.3 hPa16.1 kmNorth (10°)7.4 km/hClear
1:55 PM23 °C8 °C38 %1017.9 hPa16.1 kmCalmClear
2:15 PM23 °C8 °C38 %1017.9 hPa16.1 kmCalmClear
2:35 PM24 °C8 °C36 %1017.9 hPa16.1 kmEast (80°)5.6 km/hClear
2:55 PM23 °C8 °C38 %1017.9 hPa16.1 kmCalmClear
3:15 PM24 °C8 °C36 %1017.9 hPa16.1 kmNNW (340°)11.1 km/hClear
3:35 PM24 °C8 °C36 %1017.9 hPa16.1 kmNorth (350°)9.3 km/hClear
3:55 PM24 °C8 °C36 %1017.9 hPa16.1 kmNorth (350°)9.3 km/hClear
4:15 PM24 °C8 °C36 %1017.6 hPa16.1 kmNorth (350°)13 km/hScattered Clouds
4:35 PM24 °C8 °C36 %1017.9 hPa16.1 kmNorth (350°)11.1 km/hScattered Clouds
4:55 PM23 °C9 °C41 %1017.9 hPa16.1 kmNorth (360°)11.1 km/hClear
5:15 PM23 °C9 °C41 %1017.9 hPa16.1 kmNorth (360°)11.1 km/hScattered Clouds
5:35 PM22 °C10 °C46 %1017.9 hPa16.1 kmNorth (350°)5.6 km/hScattered Clouds
5:55 PM21 °C10 °C49 %1018.3 hPa16.1 kmCalmScattered Clouds
6:15 PM21 °C10 °C49 %1018.3 hPa16.1 kmNorth (10°)5.6 km/hMostly Cloudy
6:35 PM20 °C11 °C56 %1018.6 hPa16.1 kmCalmOvercast
6:55 PM20 °C12 °C60 %1018.6 hPa11.3 kmCalmOvercast
7:15 PM20 °C11 °C56 %1019 hPa16.1 kmCalmOvercast
7:35 PM20 °C11 °C56 %1019 hPa16.1 kmCalmOvercast
7:55 PM20 °C11 °C56 %1019 hPa16.1 kmCalmOvercast
8:15 PM19 °C11 °C60 %1019.3 hPa16.1 kmCalmScattered Clouds
8:35 PM18 °C11 °C64 %1019.6 hPa16.1 kmCalmMostly Cloudy
8:55 PM18 °C12 °C68 %1019.6 hPa16.1 kmCalmMostly Cloudy
9:15 PM18 °C12 °C68 %1019.6 hPa16.1 kmCalmOvercast
9:35 PM18 °C12 °C68 %1019.6 hPa16.1 kmCalmOvercast
9:55 PM18 °C11 °C64 %1019.6 hPa16.1 kmNE (50°)5.6 km/hMostly Cloudy
10:15 PM18 °C11 °C64 %1019.6 hPa16.1 kmNE (50°)5.6 km/hScattered Clouds
10:35 PM17 °C12 °C72 %1019.6 hPa16.1 kmCalmClear
10:55 PM16 °C12 °C77 %1019.6 hPa16.1 kmCalmMostly Cloudy
11:15 PM16 °C12 °C77 %1019.6 hPa16.1 kmCalmMostly Cloudy
11:35 PM15 °C12 °C82 %1019.6 hPa16.1 kmCalmScattered Clouds
11:55 PM14 °C12 °C88 %1019.6 hPa16.1 kmCalmClear
Hourly data recorded from KMDQ, located 0 kilometers away from Fayetteville, Tennessee







STORIES FROM OUR PARTNERS